Find Starlink 36356

NORAD ID: 68242 Int'l Des: 2026-054 Owner: SPXS Country: US Constellation: starlink operational
LEOCIRCULAR

当前视图

正在加载3D地球...

About Starlink 36356

Starlink 36356 (NORAD 68242) is a starlink constellation satellite (v2 mini) launched Mar 17, 2026 by SPXS of US. It operates in LEO, CIRCULAR orbit with a mass of 575.00 kg.

关于 Starlink 36356

正在加载描述...

即将过境

Passes for default location (London). Set your location on the main map for personalized predictions.

高度历史

Loading altitude history...

两行轨道根数

1 68242U 26054L 26167.32202050 -.00000812 00000-0 -15304-4 0 9995
2 68242 53.1565 198.7355 0001366 115.4703 244.6439 15.30185028 14093
Epoch: Jun 16, 2026 • Age: 8 hours

当前状态

高度 475.7 km
速度 7.63 km/s
星下点 7.92°N, 64.1°E
发射日期 Mar 17, 2026
运行时间 0.2 years
类型 internet

技术详情

分类 Payload
质量 575.00 kg
干质量 530.00 kg
总质量 575.00 kg
长度 0.30 m
直径 4.10 m
跨度 29.00 m
形状 Box + pan
制造商 SPXS
平台类型 Starlink V2MO
阶段状态 In Orbit
所有者/国家 SPXS/US

Most Searched